BREEZE-M DEB

Last updated on Sat May 14 2022 00:02:19 GMT+0000 (Coordinated Universal Time)

1 38971U 12044DE 22133.26123369 .00107262 80319-5 13298-2 0 9991 2 38971 50.0425 98.4292 1143639 89.9193 283.2439 13.40167467416210

Satellite not in orbit

BREEZE-M DEB